RYR4048 EYVI-ESSA

Flight info

Callsign RYR4048
Flight time 1h 7m
Altitude 36000
Route ELEKA DCT ASKOR DCT NEKET DCT TOMBU N616 XILAN
Aircraft B38M/M-SDE1FGHILORVWXY/HB1

Departure

Time 2026-05-09 02:33
Airport Vilnius International Airport (EYVI)

Arrival

Time 2026-05-09 03:40
Airport Stockholm-Arlanda Airport (ESSA)
Time Latitude Longitude Altitude Speed Heading
2026-05-09 02:08 54.64244 25.28119 639 ft 0 kts
2026-05-09 02:08 54.64244 25.28120 639 ft 0 kts 360°
2026-05-09 02:24 54.64226 25.28120 643 ft 3 kts 359°
2026-05-09 02:24 54.64201 25.28127 641 ft 3 kts 343°
2026-05-09 02:25 54.64180 25.28138 641 ft 4 kts 344°
2026-05-09 02:25 54.64159 25.28148 641 ft 2 kts 344°
2026-05-09 02:25 54.64134 25.28160 641 ft 4 kts 347°
2026-05-09 02:25 54.64140 25.28160 646 ft 4 kts
2026-05-09 02:26 54.64161 25.28178 641 ft 4 kts 46°
2026-05-09 02:26 54.64170 25.28217 640 ft 3 kts 78°
2026-05-09 02:26 54.64174 25.28247 640 ft 0 kts 78°
2026-05-09 02:28 54.64174 25.28248 640 ft 0 kts 78°
2026-05-09 02:29 54.64175 25.28278 640 ft 5 kts 91°
2026-05-09 02:29 54.64150 25.28353 641 ft 10 kts 132°
2026-05-09 02:29 54.64119 25.28491 644 ft 15 kts 91°
2026-05-09 02:29 54.64108 25.28676 649 ft 16 kts 131°
2026-05-09 02:30 54.64007 25.28676 644 ft 16 kts 197°
2026-05-09 02:30 54.63895 25.28606 644 ft 19 kts 202°
2026-05-09 02:30 54.63764 25.28513 629 ft 22 kts 201°
2026-05-09 02:30 54.63615 25.28411 623 ft 25 kts 201°
2026-05-09 02:31 54.63448 25.28297 612 ft 26 kts 201°
2026-05-09 02:31 54.63288 25.28185 614 ft 24 kts 202°
2026-05-09 02:31 54.63136 25.28076 611 ft 23 kts 202°
2026-05-09 02:31 54.62983 25.27973 613 ft 24 kts 202°
2026-05-09 02:32 54.62830 25.27867 607 ft 24 kts 201°
2026-05-09 02:32 54.62679 25.27763 603 ft 23 kts 201°
2026-05-09 02:32 54.62538 25.27677 605 ft 20 kts 183°
2026-05-09 02:32 54.62431 25.27770 614 ft 17 kts 142°
2026-05-09 02:33 54.62453 25.27911 607 ft 16 kts 23°
2026-05-09 02:33 54.62784 25.28142 601 ft 93 kts 22°
2026-05-09 02:33 54.63612 25.28737 671 ft 155 kts 24°
2026-05-09 02:33 54.64636 25.29461 1528 ft 163 kts 23°
2026-05-09 02:34 54.65599 25.30075 2981 ft 144 kts 28°
2026-05-09 02:34 54.66613 25.30760 3524 ft 168 kts 29°
2026-05-09 02:34 54.67766 25.31542 4144 ft 187 kts 29°
2026-05-09 02:34 54.69053 25.32404 4741 ft 208 kts 28°
2026-05-09 02:35 54.70435 25.33359 5381 ft 226 kts 28°
2026-05-09 02:35 54.71947 25.34421 6180 ft 237 kts 27°
2026-05-09 02:35 54.73480 25.35497 7162 ft 240 kts 25°
2026-05-09 02:35 54.75058 25.36587 8017 ft 248 kts 25°
2026-05-09 02:36 54.76682 25.37715 8854 ft 255 kts 24°
2026-05-09 02:36 54.78447 25.38456 9464 ft 276 kts
2026-05-09 02:36 54.80360 25.37612 10038 ft 294 kts 332°
2026-05-09 02:36 54.81972 25.35307 10616 ft 309 kts 308°
2026-05-09 02:37 54.83016 25.31983 11018 ft 328 kts 287°
2026-05-09 02:37 54.83422 25.27999 11465 ft 343 kts 269°
2026-05-09 02:37 54.83213 25.23811 12041 ft 353 kts 263°
2026-05-09 02:37 54.82979 25.19525 12783 ft 358 kts 264°
2026-05-09 02:38 54.82740 25.15178 13549 ft 363 kts 264°
2026-05-09 02:38 54.82494 25.10808 14319 ft 365 kts 264°
2026-05-09 02:38 54.82242 25.06375 14924 ft 371 kts 263°
2026-05-09 02:38 54.81988 25.01938 15499 ft 378 kts 263°
2026-05-09 02:39 54.81725 24.97353 16162 ft 381 kts 263°
2026-05-09 02:39 54.81458 24.92761 16750 ft 387 kts 264°
2026-05-09 02:39 54.81185 24.88082 17401 ft 390 kts 263°
2026-05-09 02:39 54.80910 24.83411 17926 ft 396 kts 263°
2026-05-09 02:40 54.80629 24.78605 18471 ft 402 kts 265°
2026-05-09 02:40 54.80771 24.73801 19129 ft 400 kts 282°
2026-05-09 02:40 54.81722 24.69251 19621 ft 402 kts 301°
2026-05-09 02:40 54.83409 24.65400 20164 ft 403 kts 317°
2026-05-09 02:41 54.85580 24.62279 20597 ft 406 kts 323°
2026-05-09 02:41 54.87818 24.59325 21029 ft 412 kts 324°
2026-05-09 02:41 54.90129 24.56347 21505 ft 415 kts 325°
2026-05-09 02:41 54.92469 24.53368 21993 ft 418 kts 326°
2026-05-09 02:42 54.94841 24.50369 22481 ft 422 kts 326°
2026-05-09 02:42 54.97231 24.47354 22993 ft 426 kts 326°
2026-05-09 02:42 54.99639 24.44315 23465 ft 429 kts 326°
2026-05-09 02:42 55.02044 24.41276 23897 ft 432 kts 326°
2026-05-09 02:43 55.04491 24.38181 24317 ft 436 kts 326°
2026-05-09 02:43 55.06958 24.35055 24763 ft 439 kts 326°
2026-05-09 02:43 55.09437 24.31910 25170 ft 442 kts 326°
2026-05-09 02:43 55.11910 24.28767 25571 ft 445 kts 326°
2026-05-09 02:44 55.14423 24.25568 26002 ft 447 kts 326°
2026-05-09 02:44 55.16939 24.22360 26418 ft 450 kts 326°
2026-05-09 02:44 55.19491 24.19102 26789 ft 454 kts 326°
2026-05-09 02:44 55.22057 24.15820 27173 ft 457 kts 326°
2026-05-09 02:45 55.24604 24.12557 27518 ft 460 kts 326°
2026-05-09 02:45 55.27201 24.09224 27867 ft 464 kts 326°
2026-05-09 02:45 55.29812 24.05868 28230 ft 467 kts 326°
2026-05-09 02:45 55.32456 24.02464 28575 ft 470 kts 326°
2026-05-09 02:46 55.35109 23.99042 28911 ft 474 kts 326°
2026-05-09 02:46 55.37776 23.95596 29267 ft 477 kts 326°
2026-05-09 02:46 55.40454 23.92130 29611 ft 480 kts 326°
2026-05-09 02:46 55.43119 23.88675 29926 ft 483 kts 326°
2026-05-09 02:47 55.45838 23.85145 30245 ft 486 kts 326°
2026-05-09 02:47 55.48572 23.81587 30539 ft 488 kts 325°
2026-05-09 02:47 55.51309 23.78018 30909 ft 488 kts 325°
2026-05-09 02:47 55.54015 23.74486 31259 ft 489 kts 325°
2026-05-09 02:48 55.56751 23.70908 31627 ft 489 kts 324°
2026-05-09 02:48 55.59490 23.67319 32121 ft 485 kts 324°
2026-05-09 02:48 55.62192 23.63772 32642 ft 481 kts 324°
2026-05-09 02:48 55.64841 23.60291 33150 ft 478 kts 323°
2026-05-09 02:49 55.67494 23.56796 33617 ft 475 kts 323°
2026-05-09 02:49 55.70130 23.53318 34149 ft 470 kts 323°
2026-05-09 02:49 55.72749 23.49859 34541 ft 468 kts 323°
2026-05-09 02:49 55.75371 23.46389 34795 ft 469 kts 322°
2026-05-09 02:50 55.77984 23.42925 35125 ft 467 kts 322°
2026-05-09 02:50 55.80588 23.39465 35456 ft 466 kts 322°
2026-05-09 02:50 55.83158 23.36044 35672 ft 468 kts 322°
2026-05-09 02:50 55.85771 23.32562 35914 ft 468 kts 322°
2026-05-09 02:51 55.88385 23.29072 36185 ft 468 kts 322°
2026-05-09 02:51 55.93557 23.22149 36206 ft 465 kts 322°
2026-05-09 02:52 55.98716 23.15219 36213 ft 463 kts 322°
2026-05-09 02:52 56.03870 23.08272 36221 ft 464 kts 322°
2026-05-09 02:53 56.09038 23.01283 36232 ft 465 kts 322°
2026-05-09 02:53 56.14160 22.94331 36233 ft 464 kts 322°
2026-05-09 02:54 56.19318 22.87309 36245 ft 466 kts 322°
2026-05-09 02:54 56.24472 22.80266 36240 ft 465 kts 322°
2026-05-09 02:55 56.28773 22.74375 36244 ft 467 kts 321°
2026-05-09 02:55 56.34773 22.66129 36248 ft 467 kts 322°
2026-05-09 02:56 56.39178 22.60403 36248 ft 465 kts 330°
2026-05-09 02:56 56.44817 22.54760 36256 ft 466 kts 330°
2026-05-09 02:57 56.50494 22.49062 36269 ft 466 kts 330°
2026-05-09 02:57 56.56165 22.43359 36263 ft 465 kts 330°
2026-05-09 02:58 56.61809 22.37665 36265 ft 466 kts 330°
2026-05-09 02:58 56.67477 22.31926 36274 ft 465 kts 330°
2026-05-09 02:59 56.73104 22.26209 36274 ft 465 kts 330°
2026-05-09 02:59 56.78780 22.20422 36283 ft 465 kts 330°
2026-05-09 03:00 56.84407 22.14666 36291 ft 465 kts 330°
2026-05-09 03:00 56.90054 22.08868 36292 ft 465 kts 330°
2026-05-09 03:01 56.95693 22.03059 36293 ft 465 kts 329°
2026-05-09 03:01 57.01306 21.97255 36289 ft 465 kts 329°
2026-05-09 03:02 57.06936 21.91415 36290 ft 465 kts 329°
2026-05-09 03:02 57.12580 21.85537 36294 ft 465 kts 329°
2026-05-09 03:03 57.18214 21.79652 36306 ft 466 kts 329°
2026-05-09 03:03 57.23826 21.73768 36301 ft 467 kts 329°
2026-05-09 03:04 57.29480 21.67818 36310 ft 466 kts 329°
2026-05-09 03:04 57.35124 21.61858 36308 ft 466 kts 329°
2026-05-09 03:05 57.40767 21.55878 36291 ft 466 kts 329°
2026-05-09 03:05 57.46376 21.49912 36294 ft 467 kts 329°
2026-05-09 03:06 57.51992 21.43917 36304 ft 467 kts 328°
2026-05-09 03:06 57.57644 21.37863 36311 ft 468 kts 328°
2026-05-09 03:07 57.63291 21.31792 36315 ft 468 kts 328°
2026-05-09 03:07 57.68939 21.25697 36325 ft 468 kts 328°
2026-05-09 03:08 57.74540 21.19631 36329 ft 468 kts 328°
2026-05-09 03:08 57.80182 21.13499 36330 ft 468 kts 328°
2026-05-09 03:09 57.85815 21.07354 36336 ft 469 kts 328°
2026-05-09 03:09 57.91424 21.01213 36345 ft 469 kts 328°
2026-05-09 03:10 57.97075 20.95004 36338 ft 469 kts 328°
2026-05-09 03:10 58.02710 20.88789 36343 ft 469 kts 328°
2026-05-09 03:11 58.08312 20.82587 36341 ft 469 kts 328°
2026-05-09 03:11 58.13956 20.76318 36351 ft 469 kts 328°
2026-05-09 03:12 58.19559 20.70074 36354 ft 468 kts 328°
2026-05-09 03:12 58.25186 20.63781 36355 ft 468 kts 327°
2026-05-09 03:13 58.33634 20.54564 36357 ft 469 kts 329°
2026-05-09 03:13 58.39348 20.48489 36355 ft 468 kts 329°
2026-05-09 03:14 58.45013 20.42434 36361 ft 468 kts 328°
2026-05-09 03:14 58.50711 20.36322 36381 ft 469 kts 328°
2026-05-09 03:15 58.56369 20.30229 36369 ft 469 kts 328°
2026-05-09 03:15 58.62072 20.24065 36366 ft 469 kts 328°
2026-05-09 03:16 58.67719 20.17938 36369 ft 469 kts 328°
2026-05-09 03:16 58.73400 20.11751 36373 ft 469 kts 328°
2026-05-09 03:17 58.79046 20.05578 35606 ft 469 kts 328°
2026-05-09 03:17 58.81918 20.02429 34636 ft 477 kts 328°
2026-05-09 03:17 58.84830 19.99232 33698 ft 481 kts 328°
2026-05-09 03:18 58.87739 19.96030 32911 ft 481 kts 328°
2026-05-09 03:18 58.90612 19.92863 32236 ft 478 kts 328°
2026-05-09 03:18 58.93498 19.89673 31491 ft 478 kts 327°
2026-05-09 03:18 58.96391 19.86472 30620 ft 480 kts 327°
2026-05-09 03:19 58.99295 19.83251 29787 ft 480 kts 328°
2026-05-09 03:19 59.02182 19.80044 29182 ft 474 kts 328°
2026-05-09 03:19 59.05033 19.76869 28557 ft 469 kts 328°
2026-05-09 03:19 59.07846 19.73731 27937 ft 464 kts 328°
2026-05-09 03:20 59.10611 19.70641 27322 ft 460 kts 328°
2026-05-09 03:20 59.13367 19.67554 26710 ft 457 kts 328°
2026-05-09 03:20 59.16120 19.64467 26109 ft 453 kts 328°
2026-05-09 03:20 59.18846 19.61406 25506 ft 450 kts 328°
2026-05-09 03:21 59.21557 19.58357 24913 ft 447 kts 329°
2026-05-09 03:21 59.24243 19.55324 24245 ft 446 kts 329°
2026-05-09 03:21 59.26890 19.52335 23625 ft 442 kts 329°
2026-05-09 03:21 59.29549 19.49327 22990 ft 438 kts 329°
2026-05-09 03:22 59.32174 19.46352 22417 ft 433 kts 329°
2026-05-09 03:22 59.34764 19.43413 21842 ft 428 kts 329°
2026-05-09 03:22 59.37334 19.40492 21274 ft 424 kts 329°
2026-05-09 03:22 59.39871 19.37602 20716 ft 420 kts 329°
2026-05-09 03:23 59.42361 19.34761 20180 ft 417 kts 329°
2026-05-09 03:23 59.44867 19.31898 19608 ft 414 kts 329°
2026-05-09 03:23 59.47356 19.29048 19057 ft 411 kts 329°
2026-05-09 03:23 59.49816 19.26227 18499 ft 408 kts 329°
2026-05-09 03:24 59.52235 19.23449 17927 ft 404 kts 329°
2026-05-09 03:24 59.54651 19.20669 17394 ft 400 kts 329°
2026-05-09 03:24 59.57035 19.17921 16889 ft 396 kts 329°
2026-05-09 03:24 59.59409 19.15180 16403 ft 392 kts 329°
2026-05-09 03:25 59.61731 19.12496 15924 ft 388 kts 329°
2026-05-09 03:25 59.64062 19.09793 15459 ft 384 kts 328°
2026-05-09 03:25 59.66102 19.06444 14969 ft 380 kts 309°
2026-05-09 03:25 59.67610 19.02207 14619 ft 373 kts 303°
2026-05-09 03:26 59.69031 18.97969 14293 ft 367 kts 302°
2026-05-09 03:26 59.70420 18.93758 13882 ft 362 kts 302°
2026-05-09 03:26 59.71765 18.89635 13490 ft 356 kts 302°
2026-05-09 03:26 59.73085 18.85561 13122 ft 344 kts 302°
2026-05-09 03:27 59.74345 18.81654 12781 ft 329 kts 302°
2026-05-09 03:27 59.75553 18.77898 12454 ft 316 kts 302°
2026-05-09 03:27 59.76709 18.74299 12133 ft 303 kts 302°
2026-05-09 03:27 59.77807 18.70877 11846 ft 291 kts 302°
2026-05-09 03:28 59.78879 18.67525 11554 ft 284 kts 302°
2026-05-09 03:28 59.79943 18.64200 11278 ft 284 kts 302°
2026-05-09 03:28 59.81004 18.60876 10970 ft 285 kts 302°
2026-05-09 03:28 59.82067 18.57542 10678 ft 285 kts 302°
2026-05-09 03:29 59.83109 18.54265 10384 ft 283 kts 302°
2026-05-09 03:29 59.84161 18.50958 10072 ft 281 kts 302°
2026-05-09 03:29 59.85203 18.47674 9763 ft 279 kts 302°
2026-05-09 03:29 59.86236 18.44416 9466 ft 276 kts 302°
2026-05-09 03:30 59.87245 18.41228 9185 ft 274 kts 302°
2026-05-09 03:30 59.88264 18.38005 8911 ft 275 kts 302°
2026-05-09 03:30 59.89292 18.34761 8636 ft 276 kts 303°
2026-05-09 03:30 59.90556 18.31943 8315 ft 277 kts 318°
2026-05-09 03:31 59.91992 18.29405 8028 ft 275 kts 318°
2026-05-09 03:31 59.93417 18.26861 7750 ft 273 kts 318°
2026-05-09 03:31 59.94821 18.24340 7472 ft 270 kts 317°
2026-05-09 03:31 59.96216 18.21829 7197 ft 268 kts 317°
2026-05-09 03:32 59.97571 18.19287 6920 ft 266 kts 309°
2026-05-09 03:32 59.98426 18.16112 6579 ft 263 kts 282°
2026-05-09 03:32 59.98478 18.12557 6305 ft 249 kts 255°
2026-05-09 03:32 59.97803 18.09532 6105 ft 230 kts 230°
2026-05-09 03:33 59.96670 18.07461 5838 ft 215 kts 208°
2026-05-09 03:33 59.95354 18.06265 5540 ft 206 kts 199°
2026-05-09 03:33 59.94024 18.05329 5221 ft 197 kts 194°
2026-05-09 03:33 59.92724 18.04615 4951 ft 189 kts 197°
2026-05-09 03:34 59.91514 18.03765 4674 ft 179 kts 197°
2026-05-09 03:34 59.90375 18.02998 4424 ft 169 kts 195°
2026-05-09 03:34 59.89282 18.02299 4218 ft 161 kts 195°
2026-05-09 03:34 59.88202 18.01634 4067 ft 162 kts 194°
2026-05-09 03:35 59.87121 18.00983 3916 ft 162 kts 194°
2026-05-09 03:35 59.86063 18.00277 3762 ft 162 kts 200°
2026-05-09 03:35 59.85015 17.99443 3606 ft 161 kts 196°
2026-05-09 03:35 59.83942 17.98818 3429 ft 160 kts 192°
2026-05-09 03:36 59.82854 17.98325 3257 ft 160 kts 189°
2026-05-09 03:36 59.81781 17.97900 3089 ft 159 kts 189°
2026-05-09 03:36 59.80693 17.97492 2919 ft 160 kts 188°
2026-05-09 03:36 59.79597 17.97088 2749 ft 159 kts 187°
2026-05-09 03:37 59.78533 17.96699 2572 ft 152 kts 188°
2026-05-09 03:37 59.77511 17.96326 2400 ft 146 kts 187°
2026-05-09 03:37 59.76541 17.95973 2198 ft 141 kts 188°
2026-05-09 03:37 59.75585 17.95625 2002 ft 137 kts 188°
2026-05-09 03:38 59.74669 17.95291 1809 ft 133 kts 188°
2026-05-09 03:38 59.73759 17.94960 1635 ft 134 kts 188°
2026-05-09 03:38 59.72832 17.94624 1448 ft 136 kts 188°
2026-05-09 03:38 59.71903 17.94287 1266 ft 135 kts 188°
2026-05-09 03:39 59.70968 17.93948 1082 ft 139 kts 188°
2026-05-09 03:39 59.70044 17.93612 869 ft 134 kts 189°
2026-05-09 03:39 59.69127 17.93280 696 ft 134 kts 189°
2026-05-09 03:39 59.68206 17.92946 517 ft 135 kts 189°
2026-05-09 03:40 59.67277 17.92609 329 ft 135 kts 189°
2026-05-09 03:40 59.66352 17.92275 155 ft 135 kts 189°
2026-05-09 03:40 59.65584 17.91995 110 ft 65 kts 190°
2026-05-09 03:40 59.65382 17.91922 108 ft 23 kts 190°
2026-05-09 03:41 59.65217 17.91901 108 ft 21 kts 177°
2026-05-09 03:41 59.65052 17.91999 106 ft 29 kts 156°
2026-05-09 03:41 59.64862 17.92106 109 ft 31 kts 192°
2026-05-09 03:41 59.64723 17.92161 113 ft 13 kts 109°
2026-05-09 03:42 59.64712 17.92366 113 ft 16 kts 102°
2026-05-09 03:42 59.64708 17.92460 114 ft 12 kts 80°
2026-05-09 03:44 59.64746 17.92532 114 ft 1 kts 30°
2026-05-09 03:45 59.64749 17.92535 114 ft 0 kts 30°